Location: D�derode
(51.8092°N, 10.1065°E)
Time: 06:33:45
(UTC+00:00)

Cosmos 1812 - Pass Details

Date: 01 December 2020
Orbit: 517 x 520 km, 82.5° (Epoch: 23 January)

Event Time Altitude Azimuth Distance (km) Brightness Sun altitude
Rises 17:31:57 0° 178° (S) 2,629 6.4 -20.6°
Reaches altitude 10° 17:34:06 10° 174° (S) 1,746 5.4 -20.9°
Enters shadow 17:36:17 31° 161° (SSE) 923 3.8 -21.2°
